Time,TemperatureF,DewpointF,PressureIn,WindDirection,WindDirectionDegrees,WindSpeedMPH,WindSpeedGustMPH,Humidity,HourlyPrecipIn,Conditions,Clouds,dailyrainin,SoftwareType,DateUTC
2013-10-01 00:00:00,63.0,55.6,30.03,North,0,0.0,0.0,77,0.00,CLR,FEW,0.00,WeatherDisplay:10.37,2013-10-01 04:00:00,
2013-10-01 00:01:00,63.0,55.6,30.03,North,0,0.0,0.0,77,0.00,CLR,FEW,0.00,WeatherDisplay:10.37,2013-10-01 04:01:00,
2013-10-01 00:02:00,62.8,55.5,30.03,North,0,0.0,0.0,77,0.00,CLR,FEW,0.00,WeatherDisplay:10.37,2013-10-01 04:02:00,
2013-10-01 00:03:00,62.8,55.5,30.03,North,0,0.0,0.0,77,0.00,CLR,FEW,0.00,WeatherDisplay:10.37,2013-10-01 04:03:00,
2013-10-01 00:06:00,62.8,55.8,30.03,North,0,0.0,0.0,78,0.00,CLR,FEW,0.00,WeatherDisplay:10.37,2013-10-01 04:06:00,
2013-10-01 00:11:00,62.6,55.6,30.03,North,0,0.0,0.0,78,0.00,CLR,FEW,0.00,WeatherDisplay:10.37,2013-10-01 04:11:00,
2013-10-01 00:17:00,62.4,55.8,30.03,North,0,0.0,0.0,79,0.00,CLR,FEW,0.00,WeatherDisplay:10.37,2013-10-01 04:17:00,
2013-10-01 00:22:00,62.4,56.2,30.03,North,0,0.0,0.0,80,0.00,CLR,FEW,0.00,WeatherDisplay:10.37,2013-10-01 04:22:00,
2013-10-01 00:28:00,62.4,56.9,30.03,North,0,0.0,0.0,82,0.00,CLR,FEW,0.00,WeatherDisplay:10.37,2013-10-01 04:28:00,
2013-10-01 00:33:00,62.4,56.9,30.03,North,0,0.0,0.0,82,0.00,CLR,FEW,0.00,WeatherDisplay:10.37,2013-10-01 04:33:00,
2013-10-01 00:38:00,62.4,57.2,30.03,North,0,0.0,0.0,83,0.00,CLR,FEW,0.00,WeatherDisplay:10.37,2013-10-01 04:38:00,
2013-10-01 00:43:00,62.2,56.7,30.03,North,0,0.0,0.0,82,0.00,CLR,FEW,0.00,WeatherDisplay:10.37,2013-10-01 04:43:00,
2013-10-01 00:48:00,62.2,56.7,30.03,North,0,0.0,0.0,82,0.00,CLR,FEW,0.00,WeatherDisplay:10.37,2013-10-01 04:48:00,
2013-10-01 00:53:00,62.1,56.5,30.03,North,0,0.0,0.0,82,0.00,CLR,FEW,0.00,WeatherDisplay:10.37,2013-10-01 04:53:00,
2013-10-01 00:58:00,61.9,56.3,30.03,North,0,0.0,0.0,82,0.00,CLR,FEW,0.00,WeatherDisplay:10.37,2013-10-01 04:58:00,
2013-10-01 01:03:00,61.7,56.1,30.03,North,0,0.0,0.0,82,0.00,CLR,FEW,0.00,WeatherDisplay:10.37,2013-10-01 05:03:00,
2013-10-01 01:08:00,61.7,56.1,30.03,North,0,0.0,0.0,82,0.00,CLR,FEW,0.00,WeatherDisplay:10.37,2013-10-01 05:08:00,
2013-10-01 01:13:00,61.5,56.0,30.03,North,0,0.0,0.0,82,0.00,CLR,FEW,0.00,WeatherDisplay:10.37,2013-10-01 05:13:00,
2013-10-01 01:18:00,61.3,55.8,30.03,North,0,0.0,0.0,82,0.00,CLR,FEW,0.00,WeatherDisplay:10.37,2013-10-01 05:18:00,
2013-10-01 01:23:00,61.3,55.8,30.03,North,0,0.0,0.0,82,0.00,CLR,FEW,0.00,WeatherDisplay:10.37,2013-10-01 05:23:00,
2013-10-01 01:29:00,61.3,56.1,30.03,North,0,0.0,0.0,83,0.00,CLR,FEW,0.00,WeatherDisplay:10.37,2013-10-01 05:29:00,
2013-10-01 01:34:00,61.3,56.1,30.03,North,0,0.0,0.0,83,0.00,CLR,FEW,0.00,WeatherDisplay:10.37,2013-10-01 05:34:00,
2013-10-01 01:40:00,61.2,56.3,30.03,North,0,0.0,0.0,84,0.00,CLR,FEW,0.00,WeatherDisplay:10.37,2013-10-01 05:40:00,
2013-10-01 01:45:00,61.2,56.6,30.03,North,0,0.0,0.0,85,0.00,CLR,FEW,0.00,WeatherDisplay:10.37,2013-10-01 05:45:00,
2013-10-01 01:50:00,61.3,57.1,30.03,North,0,0.0,0.0,86,0.00,CLR,FEW,0.00,WeatherDisplay:10.37,2013-10-01 05:50:00,
2013-10-01 01:55:00,61.3,57.4,30.03,North,0,0.0,0.0,87,0.00,CLR,FEW,0.00,WeatherDisplay:10.37,2013-10-01 05:55:00,
2013-10-01 02:00:00,61.3,57.8,30.03,North,0,0.0,0.0,88,0.00,CLR,FEW,0.00,WeatherDisplay:10.37,2013-10-01 06:00:00,
2013-10-01 02:06:00,61.2,57.3,30.03,North,0,0.0,0.0,87,0.00,CLR,FEW,0.00,WeatherDisplay:10.37,2013-10-01 06:06:00,
2013-10-01 02:11:00,61.0,57.1,30.03,North,0,0.0,0.0,87,0.00,CLR,FEW,0.00,WeatherDisplay:10.37,2013-10-01 06:11:00,
2013-10-01 02:16:00,60.8,56.9,30.03,North,0,0.0,0.0,87,0.00,CLR,FEW,0.00,WeatherDisplay:10.37,2013-10-01 06:16:00,
2013-10-01 02:21:00,60.8,56.9,30.03,North,0,0.0,0.0,87,0.00,CLR,FEW,0.00,WeatherDisplay:10.37,2013-10-01 06:21:00,
2013-10-01 02:26:00,60.6,56.7,30.03,North,0,0.0,0.0,87,0.00,CLR,FEW,0.00,WeatherDisplay:10.37,2013-10-01 06:26:00,
2013-10-01 02:31:00,60.6,57.0,30.03,North,0,0.0,0.0,88,0.00,CLR,FEW,0.00,WeatherDisplay:10.37,2013-10-01 06:31:00,
2013-10-01 02:36:00,60.6,57.0,30.03,North,0,0.0,0.0,88,0.00,CLR,FEW,0.00,WeatherDisplay:10.37,2013-10-01 06:36:00,
2013-10-01 02:41:00,60.8,57.2,30.03,North,0,0.0,0.0,88,0.00,CLR,FEW,0.00,WeatherDisplay:10.37,2013-10-01 06:41:00,
2013-10-01 02:46:00,60.6,57.0,30.03,North,0,0.0,0.0,88,0.00,CLR,FEW,0.00,WeatherDisplay:10.37,2013-10-01 06:46:00,
2013-10-01 02:51:00,60.6,57.0,30.03,North,0,0.0,0.0,88,0.00,CLR,FEW,0.00,WeatherDisplay:10.37,2013-10-01 06:51:00,
2013-10-01 02:56:00,60.4,56.9,30.03,North,0,0.0,0.0,88,0.00,CLR,FEW,0.00,WeatherDisplay:10.37,2013-10-01 06:56:00,
2013-10-01 03:01:00,60.4,56.9,30.03,North,0,0.0,0.0,88,0.00,CLR,FEW,0.00,WeatherDisplay:10.37,2013-10-01 07:01:00,
2013-10-01 03:06:00,60.6,57.4,30.03,North,0,0.0,0.0,89,0.00,CLR,FEW,0.00,WeatherDisplay:10.37,2013-10-01 07:06:00,
2013-10-01 03:12:00,60.4,57.2,30.03,North,0,0.0,0.0,89,0.00,CLR,FEW,0.00,WeatherDisplay:10.37,2013-10-01 07:12:00,
2013-10-01 03:17:00,60.4,57.2,30.03,North,0,0.0,0.0,89,0.00,CLR,FEW,0.00,WeatherDisplay:10.37,2013-10-01 07:17:00,
2013-10-01 03:22:00,60.4,57.2,30.03,North,0,0.0,0.0,89,0.00,CLR,FEW,0.00,WeatherDisplay:10.37,2013-10-01 07:22:00,
2013-10-01 03:27:00,60.4,57.2,30.03,North,0,0.0,0.0,89,0.00,CLR,FEW,0.00,WeatherDisplay:10.37,2013-10-01 07:27:00,
2013-10-01 03:33:00,60.4,57.2,30.03,North,0,0.0,0.0,89,0.00,CLR,FEW,0.00,WeatherDisplay:10.37,2013-10-01 07:33:00,
2013-10-01 03:39:00,60.4,57.2,30.03,North,0,0.0,0.0,89,0.00,CLR,FEW,0.00,WeatherDisplay:10.37,2013-10-01 07:39:00,
2013-10-01 03:44:00,60.4,57.2,30.03,North,0,0.0,0.0,89,0.00,CLR,FEW,0.00,WeatherDisplay:10.37,2013-10-01 07:44:00,
2013-10-01 03:49:00,60.4,57.2,30.03,North,0,0.0,0.0,89,0.00,CLR,FEW,0.00,WeatherDisplay:10.37,2013-10-01 07:49:00,
2013-10-01 03:54:00,60.3,57.0,30.03,North,0,0.0,0.0,89,0.00,CLR,FEW,0.00,WeatherDisplay:10.37,2013-10-01 07:54:00,
2013-10-01 04:00:00,60.3,57.0,30.03,North,0,0.0,0.0,89,0.00,CLR,FEW,0.00,WeatherDisplay:10.37,2013-10-01 08:00:00,
2013-10-01 04:06:00,60.1,56.8,30.03,North,0,0.0,0.0,89,0.00,CLR,FEW,0.00,WeatherDisplay:10.37,2013-10-01 08:06:00,
2013-10-01 04:11:00,60.1,56.5,30.03,North,0,0.0,0.0,88,0.00,CLR,FEW,0.00,WeatherDisplay:10.37,2013-10-01 08:11:00,
2013-10-01 04:16:00,60.1,56.5,30.03,North,0,0.0,0.0,88,0.00,CLR,FEW,0.00,WeatherDisplay:10.37,2013-10-01 08:16:00,
2013-10-01 04:21:00,60.1,56.8,30.03,North,0,0.0,0.0,89,0.00,CLR,FEW,0.00,WeatherDisplay:10.37,2013-10-01 08:21:00,
2013-10-01 04:26:00,60.1,56.8,30.03,North,0,0.0,0.0,89,0.00,CLR,FEW,0.00,WeatherDisplay:10.37,2013-10-01 08:26:00,
2013-10-01 04:31:00,60.1,56.8,30.03,North,0,0.0,0.0,89,0.00,CLR,FEW,0.00,WeatherDisplay:10.37,2013-10-01 08:31:00,
2013-10-01 04:36:00,59.9,56.6,30.03,North,0,0.0,0.0,89,0.00,CLR,FEW,0.00,WeatherDisplay:10.37,2013-10-01 08:36:00,
2013-10-01 04:41:00,59.9,56.6,30.03,North,0,0.0,0.0,89,0.00,CLR,FEW,0.00,WeatherDisplay:10.37,2013-10-01 08:41:00,
2013-10-01 04:46:00,59.9,56.6,30.03,North,0,0.0,0.0,89,0.00,CLR,FEW,0.00,WeatherDisplay:10.37,2013-10-01 08:46:00,
2013-10-01 04:51:00,59.7,56.5,30.03,North,0,0.0,0.0,89,0.00,CLR,FEW,0.00,WeatherDisplay:10.37,2013-10-01 08:51:00,
2013-10-01 04:56:00,59.7,56.5,30.03,North,0,0.0,0.0,89,0.00,CLR,FEW,0.00,WeatherDisplay:10.37,2013-10-01 08:56:00,
2013-10-01 05:01:00,59.7,56.5,30.03,North,0,0.0,0.0,89,0.00,CLR,FEW,0.00,WeatherDisplay:10.37,2013-10-01 09:01:00,
2013-10-01 05:06:00,59.7,56.5,30.03,North,0,0.0,0.0,89,0.00,CLR,FEW,0.00,WeatherDisplay:10.37,2013-10-01 09:06:00,
2013-10-01 05:12:00,59.7,56.5,30.03,North,0,0.0,0.0,89,0.00,CLR,FEW,0.00,WeatherDisplay:10.37,2013-10-01 09:12:00,
2013-10-01 05:18:00,59.7,56.5,30.03,North,0,0.0,0.0,89,0.00,CLR,FEW,0.00,WeatherDisplay:10.37,2013-10-01 09:18:00,
2013-10-01 05:24:00,59.7,56.5,30.03,North,0,0.0,0.0,89,0.00,CLR,FEW,0.00,WeatherDisplay:10.37,2013-10-01 09:24:00,
2013-10-01 05:30:00,59.7,56.5,30.03,North,0,0.0,0.0,89,0.00,CLR,FEW,0.00,WeatherDisplay:10.37,2013-10-01 09:30:00,
2013-10-01 05:35:00,59.5,56.3,30.03,North,0,0.0,0.0,89,0.00,CLR,FEW,0.00,WeatherDisplay:10.37,2013-10-01 09:35:00,
2013-10-01 05:40:00,59.4,56.1,30.03,North,0,0.0,0.0,89,0.00,CLR,FEW,0.00,WeatherDisplay:10.37,2013-10-01 09:40:00,
2013-10-01 05:45:00,59.4,56.1,30.06,North,0,0.0,0.0,89,0.00,CLR,FEW,0.00,WeatherDisplay:10.37,2013-10-01 09:45:00,
2013-10-01 05:50:00,59.4,56.1,30.06,North,0,0.0,0.0,89,0.00,CLR,FEW,0.00,WeatherDisplay:10.37,2013-10-01 09:50:00,
2013-10-01 05:55:00,59.2,55.9,30.06,North,0,0.0,0.0,89,0.00,CLR,FEW,0.00,WeatherDisplay:10.37,2013-10-01 09:55:00,
2013-10-01 06:01:00,59.2,55.9,30.06,North,0,0.0,0.0,89,0.00,CLR,FEW,0.00,WeatherDisplay:10.37,2013-10-01 10:01:00,
2013-10-01 06:06:00,59.2,55.9,30.06,North,0,0.0,0.0,89,0.00,CLR,FEW,0.00,WeatherDisplay:10.37,2013-10-01 10:06:00,
2013-10-01 06:11:00,59.2,56.2,30.06,North,0,0.0,0.0,90,0.00,CLR,FEW,0.00,WeatherDisplay:10.37,2013-10-01 10:11:00,
2013-10-01 06:16:00,59.2,56.2,30.06,North,0,0.0,0.0,90,0.00,CLR,FEW,0.00,WeatherDisplay:10.37,2013-10-01 10:16:00,
2013-10-01 06:22:00,59.2,56.2,30.06,North,0,0.0,0.0,90,0.00,CLR,FEW,0.00,WeatherDisplay:10.37,2013-10-01 10:22:00,
2013-10-01 06:28:00,59.0,56.1,30.06,North,0,0.0,0.0,90,0.00,CLR,FEW,0.00,WeatherDisplay:10.37,2013-10-01 10:28:00,
2013-10-01 06:33:00,59.0,56.4,30.06,North,0,0.0,0.0,91,0.00,CLR,FEW,0.00,WeatherDisplay:10.37,2013-10-01 10:33:00,
2013-10-01 06:38:00,59.2,56.9,30.06,North,0,0.0,0.0,92,0.00,CLR,FEW,0.00,WeatherDisplay:10.37,2013-10-01 10:38:00,
2013-10-01 06:44:00,59.2,56.9,30.06,North,0,0.0,0.0,92,0.00,CLR,FEW,0.00,WeatherDisplay:10.37,2013-10-01 10:44:00,
2013-10-01 06:49:00,59.2,57.2,30.06,North,0,0.0,0.0,93,0.00,CLR,FEW,0.00,WeatherDisplay:10.37,2013-10-01 10:49:00,
2013-10-01 06:54:00,59.2,57.2,30.06,North,0,0.0,0.0,93,0.00,CLR,FEW,0.00,WeatherDisplay:10.37,2013-10-01 10:54:00,
2013-10-01 06:59:00,59.2,57.2,30.06,North,0,0.0,0.0,93,0.00,CLR,FEW,0.00,WeatherDisplay:10.37,2013-10-01 10:59:00,
2013-10-01 07:04:00,59.4,57.3,30.06,North,0,0.0,0.0,93,0.00,CLR,FEW,0.00,WeatherDisplay:10.37,2013-10-01 11:04:00,
2013-10-01 07:09:00,59.2,57.2,30.06,North,0,0.0,0.0,93,0.00,CLR,FEW,0.00,WeatherDisplay:10.37,2013-10-01 11:09:00,
2013-10-01 07:15:00,59.2,57.2,30.06,North,0,0.0,0.0,93,0.00,CLR,FEW,0.00,WeatherDisplay:10.37,2013-10-01 11:15:00,
2013-10-01 07:20:00,59.2,57.2,30.06,North,0,0.0,0.0,93,0.00,CLR,FEW,0.00,WeatherDisplay:10.37,2013-10-01 11:20:00,
2013-10-01 07:26:00,59.2,57.2,30.06,North,0,0.0,0.0,93,0.00,CLR,FEW,0.00,WeatherDisplay:10.37,2013-10-01 11:26:00,
2013-10-01 07:31:00,59.2,57.2,30.09,North,0,0.0,0.0,93,0.00,CLR,FEW,0.00,WeatherDisplay:10.37,2013-10-01 11:31:00,
2013-10-01 07:36:00,59.4,57.3,30.09,North,0,0.0,0.0,93,0.00,CLR,FEW,0.00,WeatherDisplay:10.37,2013-10-01 11:36:00,
2013-10-01 07:41:00,59.4,57.3,30.09,North,0,0.0,0.0,93,0.00,CLR,FEW,0.00,WeatherDisplay:10.37,2013-10-01 11:41:00,
2013-10-01 07:47:00,59.4,57.3,30.09,North,0,0.0,0.0,93,0.00,CLR,FEW,0.00,WeatherDisplay:10.37,2013-10-01 11:47:00,
2013-10-01 07:52:00,59.5,57.2,30.09,North,0,0.0,0.0,92,0.00,CLR,FEW,0.00,WeatherDisplay:10.37,2013-10-01 11:52:00,
2013-10-01 07:58:00,60.1,57.7,30.09,North,0,0.0,0.0,92,0.00,CLR,FEW,0.00,WeatherDisplay:10.37,2013-10-01 11:58:00,
2013-10-01 08:03:00,60.6,58.0,30.09,North,0,0.0,0.0,91,0.00,CLR,FEW,0.00,WeatherDisplay:10.37,2013-10-01 12:03:00,
2013-10-01 08:08:00,61.0,57.1,30.09,North,0,0.0,0.0,87,0.00,CLR,FEW,0.00,WeatherDisplay:10.37,2013-10-01 12:08:00,
2013-10-01 08:13:00,61.3,56.1,30.09,North,0,0.0,0.0,83,0.00,CLR,FEW,0.00,WeatherDisplay:10.37,2013-10-01 12:13:00,
2013-10-01 08:18:00,61.9,54.9,30.09,North,0,0.0,0.0,78,0.00,CLR,FEW,0.00,WeatherDisplay:10.37,2013-10-01 12:18:00,
2013-10-01 08:24:00,62.6,53.1,30.09,North,0,0.0,0.0,71,0.00,CLR,FEW,0.00,WeatherDisplay:10.37,2013-10-01 12:24:00,
2013-10-01 08:29:00,63.3,52.6,30.09,North,0,0.0,0.0,68,0.00,CLR,FEW,0.00,WeatherDisplay:10.37,2013-10-01 12:29:00,
2013-10-01 08:34:00,63.9,51.4,30.09,North,0,0.0,0.0,64,0.00,CLR,FEW,0.00,WeatherDisplay:10.37,2013-10-01 12:34:00,
2013-10-01 08:39:00,64.4,49.8,30.09,North,0,0.0,0.0,59,0.00,CLR,FEW,0.00,WeatherDisplay:10.37,2013-10-01 12:39:00,
2013-10-01 08:44:00,65.1,49.5,30.09,North,0,0.0,0.0,57,0.00,CLR,FEW,0.00,WeatherDisplay:10.37,2013-10-01 12:44:00,
2013-10-01 08:49:00,66.0,49.9,30.09,North,0,0.0,0.0,56,0.00,CLR,FEW,0.00,WeatherDisplay:10.37,2013-10-01 12:49:00,
2013-10-01 08:54:00,66.6,48.4,30.09,North,0,0.0,0.0,52,0.00,CLR,FEW,0.00,WeatherDisplay:10.37,2013-10-01 12:54:00,
2013-10-01 09:00:00,67.1,46.7,30.09,North,0,0.0,0.0,48,0.00,CLR,FEW,0.00,WeatherDisplay:10.37,2013-10-01 13:00:00,
2013-10-01 09:05:00,67.6,46.1,30.09,North,0,0.0,0.0,46,0.00,CLR,FEW,0.00,WeatherDisplay:10.37,2013-10-01 13:05:00,
2013-10-01 09:10:00,68.2,46.0,30.09,North,0,0.0,0.0,45,0.00,CLR,FEW,0.00,WeatherDisplay:10.37,2013-10-01 13:10:00,
2013-10-01 09:16:00,68.7,45.9,30.09,North,0,0.0,0.0,44,0.00,CLR,FEW,0.00,WeatherDisplay:10.37,2013-10-01 13:16:00,
2013-10-01 09:21:00,69.3,45.8,30.09,North,0,0.0,0.0,43,0.00,CLR,FEW,0.00,WeatherDisplay:10.37,2013-10-01 13:21:00,
2013-10-01 09:27:00,69.8,45.0,30.12,North,0,0.0,0.0,41,0.00,CLR,FEW,0.00,WeatherDisplay:10.37,2013-10-01 13:27:00,
2013-10-01 09:33:00,70.3,43.5,30.12,North,0,0.0,0.0,38,0.00,CLR,FEW,0.00,WeatherDisplay:10.37,2013-10-01 13:33:00,
2013-10-01 09:38:00,70.7,41.7,30.12,North,0,0.0,0.0,35,0.00,CLR,FEW,0.00,WeatherDisplay:10.37,2013-10-01 13:38:00,
2013-10-01 09:43:00,71.2,42.2,30.12,North,0,0.0,0.0,35,0.00,CLR,FEW,0.00,WeatherDisplay:10.37,2013-10-01 13:43:00,
2013-10-01 09:48:00,72.0,42.0,30.12,North,0,0.0,0.0,34,0.00,CLR,FEW,0.00,WeatherDisplay:10.37,2013-10-01 13:48:00,
2013-10-01 09:54:00,72.7,41.1,30.12,North,0,0.0,0.0,32,0.00,CLR,FEW,0.00,WeatherDisplay:10.37,2013-10-01 13:54:00,
2013-10-01 09:59:00,73.0,41.4,30.12,North,0,0.0,0.0,32,0.00,CLR,FEW,0.00,WeatherDisplay:10.37,2013-10-01 13:59:00,
2013-10-01 10:04:00,73.2,39.9,30.12,North,0,0.0,0.0,30,0.00,CLR,FEW,0.00,WeatherDisplay:10.37,2013-10-01 14:04:00,
2013-10-01 10:09:00,73.4,36.4,30.12,North,0,0.0,0.0,26,0.00,CLR,FEW,0.00,WeatherDisplay:10.37,2013-10-01 14:09:00,
2013-10-01 10:14:00,74.1,39.8,30.12,North,0,0.0,0.0,29,0.00,CLR,FEW,0.00,WeatherDisplay:10.37,2013-10-01 14:14:00,
2013-10-01 10:20:00,74.8,36.6,30.12,North,0,0.0,0.0,25,0.00,CLR,FEW,0.00,WeatherDisplay:10.37,2013-10-01 14:20:00,
2013-10-01 10:25:00,74.5,35.3,30.12,North,0,0.0,0.0,24,0.00,CLR,FEW,0.00,WeatherDisplay:10.37,2013-10-01 14:25:00,
2013-10-01 10:30:00,74.5,34.2,30.12,North,0,0.0,0.0,23,0.00,CLR,FEW,0.00,WeatherDisplay:10.37,2013-10-01 14:30:00,
2013-10-01 10:36:00,74.8,35.6,30.12,North,0,0.0,0.0,24,0.00,CLR,FEW,0.00,WeatherDisplay:10.37,2013-10-01 14:36:00,
2013-10-01 10:42:00,75.6,34.0,30.12,North,0,0.0,0.0,22,0.00,CLR,FEW,0.00,WeatherDisplay:10.37,2013-10-01 14:42:00,
2013-10-01 10:47:00,76.3,34.6,30.12,North,0,0.0,0.0,22,0.00,CLR,FEW,0.00,WeatherDisplay:10.37,2013-10-01 14:47:00,
2013-10-01 10:52:00,76.5,33.6,30.12,North,0,0.0,0.0,21,0.00,CLR,FEW,0.00,WeatherDisplay:10.37,2013-10-01 14:52:00,
2013-10-01 10:57:00,76.6,34.9,30.12,North,0,0.0,0.0,22,0.00,CLR,FEW,0.00,WeatherDisplay:10.37,2013-10-01 14:57:00,
2013-10-01 11:02:00,77.2,34.2,30.12,North,0,0.0,0.0,21,0.00,CLR,FEW,0.00,WeatherDisplay:10.37,2013-10-01 15:02:00,
2013-10-01 11:08:00,77.5,34.5,30.12,North,0,0.0,0.0,21,0.00,CLR,FEW,0.00,WeatherDisplay:10.37,2013-10-01 15:08:00,
2013-10-01 11:14:00,77.4,34.4,30.12,North,0,0.0,0.0,21,0.00,CLR,FEW,0.00,WeatherDisplay:10.37,2013-10-01 15:14:00,
2013-10-01 11:20:00,77.7,34.7,30.12,North,0,0.0,0.0,21,0.00,CLR,FEW,0.00,WeatherDisplay:10.37,2013-10-01 15:20:00,
2013-10-01 11:25:00,77.9,33.6,30.12,North,0,0.0,0.0,20,0.00,CLR,FEW,0.00,WeatherDisplay:10.37,2013-10-01 15:25:00,
2013-10-01 11:30:00,77.5,33.3,30.09,North,0,0.0,0.0,20,0.00,CLR,FEW,0.00,WeatherDisplay:10.37,2013-10-01 15:30:00,
2013-10-01 11:35:00,77.5,34.5,30.09,North,0,0.0,0.0,21,0.00,CLR,FEW,0.00,WeatherDisplay:10.37,2013-10-01 15:35:00,
2013-10-01 11:41:00,78.3,33.9,30.09,North,0,0.0,0.0,20,0.00,CLR,FEW,0.00,WeatherDisplay:10.37,2013-10-01 15:41:00,
2013-10-01 11:46:00,78.1,33.7,30.09,North,0,0.0,0.0,20,0.00,CLR,FEW,0.00,WeatherDisplay:10.37,2013-10-01 15:46:00,
2013-10-01 11:52:00,77.4,34.4,30.09,North,0,0.0,0.0,21,0.00,CLR,FEW,0.00,WeatherDisplay:10.37,2013-10-01 15:52:00,
2013-10-01 11:57:00,76.8,35.1,30.09,North,0,0.0,0.0,22,0.00,CLR,FEW,0.00,WeatherDisplay:10.37,2013-10-01 15:57:00,
2013-10-01 12:03:00,75.9,35.4,30.09,North,0,0.0,0.0,23,0.00,CLR,FEW,0.00,WeatherDisplay:10.37,2013-10-01 16:03:00,
2013-10-01 12:08:00,75.9,34.3,30.09,North,0,0.0,0.0,22,0.00,CLR,FEW,0.00,WeatherDisplay:10.37,2013-10-01 16:08:00,
2013-10-01 12:14:00,76.1,35.6,30.09,North,0,0.0,0.0,23,0.00,CLR,FEW,0.00,WeatherDisplay:10.37,2013-10-01 16:14:00,
2013-10-01 12:19:00,76.6,37.1,30.09,North,0,0.0,0.0,24,0.00,CLR,FEW,0.00,WeatherDisplay:10.37,2013-10-01 16:19:00,
2013-10-01 12:24:00,76.8,36.2,30.09,North,0,0.0,0.0,23,0.00,CLR,FEW,0.00,WeatherDisplay:10.37,2013-10-01 16:24:00,
2013-10-01 12:29:00,76.5,34.8,30.09,North,0,0.0,0.0,22,0.00,CLR,FEW,0.00,WeatherDisplay:10.37,2013-10-01 16:29:00,
2013-10-01 12:32:00,75.7,35.3,30.09,North,0,0.0,0.0,23,0.00,CLR,FEW,0.00,WeatherDisplay:10.37,2013-10-01 16:32:00,
2013-10-01 12:37:00,75.6,35.1,30.09,North,0,0.0,0.0,23,0.00,CLR,FEW,0.00,WeatherDisplay:10.37,2013-10-01 16:37:00,
2013-10-01 12:43:00,75.4,35.0,30.09,North,0,0.0,0.0,23,0.00,CLR,FEW,0.00,WeatherDisplay:10.37,2013-10-01 16:43:00,
2013-10-01 12:48:00,75.7,35.3,30.09,North,0,0.0,0.0,23,0.00,CLR,FEW,0.00,WeatherDisplay:10.37,2013-10-01 16:48:00,
2013-10-01 12:53:00,75.9,37.6,30.09,North,0,0.0,0.0,25,0.00,CLR,FEW,0.00,WeatherDisplay:10.37,2013-10-01 16:53:00,
2013-10-01 12:59:00,76.8,36.2,30.09,North,0,0.0,0.0,23,0.00,CLR,FEW,0.00,WeatherDisplay:10.37,2013-10-01 16:59:00,
2013-10-01 13:04:00,77.2,35.4,30.09,North,0,0.0,0.0,22,0.00,CLR,FEW,0.00,WeatherDisplay:10.37,2013-10-01 17:04:00,
2013-10-01 13:09:00,77.2,35.4,30.09,North,0,0.0,0.0,22,0.00,CLR,FEW,0.00,WeatherDisplay:10.37,2013-10-01 17:09:00,
2013-10-01 13:14:00,77.2,35.4,30.09,North,0,0.0,0.0,22,0.00,CLR,FEW,0.00,WeatherDisplay:10.37,2013-10-01 17:14:00,
2013-10-01 13:19:00,77.0,35.2,30.09,North,0,0.0,0.0,22,0.00,CLR,FEW,0.00,WeatherDisplay:10.37,2013-10-01 17:19:00,
2013-10-01 13:24:00,77.4,34.4,30.09,North,0,0.0,0.0,21,0.00,CLR,FEW,0.00,WeatherDisplay:10.37,2013-10-01 17:24:00,
2013-10-01 13:30:00,77.7,35.8,30.06,North,0,0.0,0.0,22,0.00,CLR,FEW,0.00,WeatherDisplay:10.37,2013-10-01 17:30:00,
2013-10-01 13:35:00,77.5,34.5,30.06,North,0,0.0,0.0,21,0.00,CLR,FEW,0.00,WeatherDisplay:10.37,2013-10-01 17:35:00,
2013-10-01 13:40:00,77.9,36.0,30.06,North,0,0.0,0.0,22,0.00,CLR,FEW,0.00,WeatherDisplay:10.37,2013-10-01 17:40:00,
2013-10-01 13:45:00,77.7,34.7,30.06,North,0,0.0,0.0,21,0.00,CLR,FEW,0.00,WeatherDisplay:10.37,2013-10-01 17:45:00,
2013-10-01 13:50:00,78.1,35.0,30.06,North,0,0.0,0.0,21,0.00,CLR,FEW,0.00,WeatherDisplay:10.37,2013-10-01 17:50:00,
2013-10-01 13:55:00,78.1,35.0,30.06,North,0,0.0,0.0,21,0.00,CLR,FEW,0.00,WeatherDisplay:10.37,2013-10-01 17:55:00,
2013-10-01 14:00:00,78.3,35.1,30.06,North,0,0.0,0.0,21,0.00,CLR,FEW,0.00,WeatherDisplay:10.37,2013-10-01 18:00:00,
2013-10-01 14:06:00,78.6,35.4,30.06,North,0,0.0,0.0,21,0.00,CLR,FEW,0.00,WeatherDisplay:10.37,2013-10-01 18:06:00,
2013-10-01 14:11:00,78.6,35.4,30.06,North,0,0.0,0.0,21,0.00,CLR,FEW,0.00,WeatherDisplay:10.37,2013-10-01 18:11:00,
2013-10-01 14:17:00,77.7,34.7,30.06,North,0,0.0,0.0,21,0.00,CLR,FEW,0.00,WeatherDisplay:10.37,2013-10-01 18:17:00,
2013-10-01 14:23:00,77.5,34.5,30.06,North,0,0.0,0.0,21,0.00,CLR,FEW,0.00,WeatherDisplay:10.37,2013-10-01 18:23:00,
2013-10-01 14:28:00,77.9,34.8,30.06,North,0,0.0,0.0,21,0.00,CLR,FEW,0.00,WeatherDisplay:10.37,2013-10-01 18:28:00,
2013-10-01 14:33:00,78.1,35.0,30.06,North,0,0.0,0.0,21,0.00,CLR,FEW,0.00,WeatherDisplay:10.37,2013-10-01 18:33:00,
2013-10-01 14:38:00,78.3,35.1,30.06,North,0,0.0,0.0,21,0.00,CLR,FEW,0.00,WeatherDisplay:10.37,2013-10-01 18:38:00,
2013-10-01 14:44:00,78.1,35.0,30.06,North,0,0.0,0.0,21,0.00,CLR,FEW,0.00,WeatherDisplay:10.37,2013-10-01 18:44:00,
2013-10-01 14:50:00,77.9,34.8,30.06,North,0,0.0,0.0,21,0.00,CLR,FEW,0.00,WeatherDisplay:10.37,2013-10-01 18:50:00,
2013-10-01 14:55:00,77.7,34.7,30.06,North,0,0.0,0.0,21,0.00,CLR,FEW,0.00,WeatherDisplay:10.37,2013-10-01 18:55:00,
2013-10-01 15:00:00,77.5,34.5,30.03,North,0,0.0,0.0,21,0.00,CLR,FEW,0.00,WeatherDisplay:10.37,2013-10-01 19:00:00,
2013-10-01 15:05:00,77.5,35.7,30.03,North,0,0.0,0.0,22,0.00,CLR,FEW,0.00,WeatherDisplay:10.37,2013-10-01 19:05:00,
2013-10-01 15:10:00,77.7,35.8,30.03,North,0,0.0,0.0,22,0.00,CLR,FEW,0.00,WeatherDisplay:10.37,2013-10-01 19:10:00,
2013-10-01 15:16:00,78.1,35.0,30.03,North,0,0.0,0.0,21,0.00,CLR,FEW,0.00,WeatherDisplay:10.37,2013-10-01 19:16:00,
2013-10-01 15:21:00,77.9,34.8,30.03,North,0,0.0,0.0,21,0.00,CLR,FEW,0.00,WeatherDisplay:10.37,2013-10-01 19:21:00,
2013-10-01 15:26:00,77.7,35.8,30.03,North,0,0.0,0.0,22,0.00,CLR,FEW,0.00,WeatherDisplay:10.37,2013-10-01 19:26:00,
2013-10-01 15:32:00,77.4,34.4,30.03,North,0,0.0,0.0,21,0.00,CLR,FEW,0.00,WeatherDisplay:10.37,2013-10-01 19:32:00,
2013-10-01 15:37:00,77.2,34.2,30.03,North,0,0.0,0.0,21,0.00,CLR,FEW,0.00,WeatherDisplay:10.37,2013-10-01 19:37:00,
2013-10-01 15:42:00,77.5,35.7,30.03,North,0,0.0,0.0,22,0.00,CLR,FEW,0.00,WeatherDisplay:10.37,2013-10-01 19:42:00,
2013-10-01 15:47:00,77.5,34.5,30.03,North,0,0.0,0.0,21,0.00,CLR,FEW,0.00,WeatherDisplay:10.37,2013-10-01 19:47:00,
2013-10-01 15:52:00,77.5,35.7,30.03,North,0,0.0,0.0,22,0.00,CLR,FEW,0.00,WeatherDisplay:10.37,2013-10-01 19:52:00,
2013-10-01 15:58:00,77.4,35.5,30.03,North,0,0.0,0.0,22,0.00,CLR,FEW,0.00,WeatherDisplay:10.37,2013-10-01 19:58:00,
2013-10-01 16:03:00,77.5,35.7,30.03,North,0,0.0,0.0,22,0.00,CLR,FEW,0.00,WeatherDisplay:10.37,2013-10-01 20:03:00,
2013-10-01 16:09:00,77.5,34.5,30.03,North,0,0.0,0.0,21,0.00,CLR,FEW,0.00,WeatherDisplay:10.37,2013-10-01 20:09:00,
2013-10-01 16:15:00,77.2,34.2,30.03,North,0,0.0,0.0,21,0.00,CLR,FEW,0.00,WeatherDisplay:10.37,2013-10-01 20:15:00,
2013-10-01 16:20:00,76.8,35.1,30.03,North,0,0.0,0.0,22,0.00,CLR,FEW,0.00,WeatherDisplay:10.37,2013-10-01 20:20:00,
2013-10-01 16:25:00,76.5,34.8,30.03,North,0,0.0,0.0,22,0.00,CLR,FEW,0.00,WeatherDisplay:10.37,2013-10-01 20:25:00,
2013-10-01 16:30:00,76.3,35.7,30.03,North,0,0.0,0.0,23,0.00,CLR,FEW,0.00,WeatherDisplay:10.37,2013-10-01 20:30:00,
2013-10-01 16:35:00,76.1,34.5,30.03,North,0,0.0,0.0,22,0.00,CLR,FEW,0.00,WeatherDisplay:10.37,2013-10-01 20:35:00,
2013-10-01 16:41:00,75.7,34.2,30.03,North,0,0.0,0.0,22,0.00,CLR,FEW,0.00,WeatherDisplay:10.37,2013-10-01 20:41:00,
2013-10-01 16:46:00,75.6,34.0,30.03,North,0,0.0,0.0,22,0.00,CLR,FEW,0.00,WeatherDisplay:10.37,2013-10-01 20:46:00,
2013-10-01 16:51:00,75.6,35.1,30.03,North,0,0.0,0.0,23,0.00,CLR,FEW,0.00,WeatherDisplay:10.37,2013-10-01 20:51:00,
2013-10-01 16:56:00,75.7,35.3,30.03,North,0,0.0,0.0,23,0.00,CLR,FEW,0.00,WeatherDisplay:10.37,2013-10-01 20:56:00,
2013-10-01 17:01:00,75.6,35.1,30.03,North,0,0.0,0.0,23,0.00,CLR,FEW,0.00,WeatherDisplay:10.37,2013-10-01 21:01:00,
2013-10-01 17:06:00,75.4,35.0,30.03,North,0,0.0,0.0,23,0.00,CLR,FEW,0.00,WeatherDisplay:10.37,2013-10-01 21:06:00,
2013-10-01 17:12:00,75.2,34.8,30.03,North,0,0.0,0.0,23,0.00,CLR,FEW,0.00,WeatherDisplay:10.37,2013-10-01 21:12:00,
2013-10-01 17:17:00,75.0,35.8,30.03,North,0,0.0,0.0,24,0.00,CLR,FEW,0.00,WeatherDisplay:10.37,2013-10-01 21:17:00,
2013-10-01 17:22:00,75.0,35.8,30.03,North,0,0.0,0.0,24,0.00,CLR,FEW,0.00,WeatherDisplay:10.37,2013-10-01 21:22:00,
2013-10-01 17:28:00,74.8,36.6,30.03,North,0,0.0,0.0,25,0.00,CLR,FEW,0.00,WeatherDisplay:10.37,2013-10-01 21:28:00,
2013-10-01 17:33:00,74.8,35.6,30.03,North,0,0.0,0.0,24,0.00,CLR,FEW,0.00,WeatherDisplay:10.37,2013-10-01 21:33:00,
2013-10-01 17:38:00,74.8,35.6,30.03,North,0,0.0,0.0,24,0.00,CLR,FEW,0.00,WeatherDisplay:10.37,2013-10-01 21:38:00,
2013-10-01 17:43:00,74.8,35.6,30.03,North,0,0.0,0.0,24,0.00,CLR,FEW,0.00,WeatherDisplay:10.37,2013-10-01 21:43:00,
2013-10-01 17:49:00,74.8,35.6,30.03,North,0,0.0,0.0,24,0.00,CLR,FEW,0.00,WeatherDisplay:10.37,2013-10-01 21:49:00,
2013-10-01 17:55:00,74.7,35.5,30.03,North,0,0.0,0.0,24,0.00,CLR,FEW,0.00,WeatherDisplay:10.37,2013-10-01 21:55:00,
2013-10-01 18:01:00,74.7,36.5,30.03,North,0,0.0,0.0,25,0.00,CLR,FEW,0.00,WeatherDisplay:10.37,2013-10-01 22:01:00,
2013-10-01 18:06:00,74.5,36.3,30.03,North,0,0.0,0.0,25,0.00,CLR,FEW,0.00,WeatherDisplay:10.37,2013-10-01 22:06:00,
2013-10-01 18:11:00,74.3,36.2,30.03,North,0,0.0,0.0,25,0.00,CLR,FEW,0.00,WeatherDisplay:10.37,2013-10-01 22:11:00,
2013-10-01 18:16:00,74.1,36.0,30.03,North,0,0.0,0.0,25,0.00,CLR,FEW,0.00,WeatherDisplay:10.37,2013-10-01 22:16:00,
2013-10-01 18:22:00,74.1,36.0,30.03,North,0,0.0,0.0,25,0.00,CLR,FEW,0.00,WeatherDisplay:10.37,2013-10-01 22:22:00,
2013-10-01 18:28:00,74.1,37.0,30.03,North,0,0.0,0.0,26,0.00,CLR,FEW,0.00,WeatherDisplay:10.37,2013-10-01 22:28:00,
2013-10-01 18:34:00,73.9,37.8,30.03,North,0,0.0,0.0,27,0.00,CLR,FEW,0.00,WeatherDisplay:10.37,2013-10-01 22:34:00,
2013-10-01 18:39:00,73.8,37.7,30.03,North,0,0.0,0.0,27,0.00,CLR,FEW,0.00,WeatherDisplay:10.37,2013-10-01 22:39:00,
2013-10-01 18:44:00,73.6,37.5,30.03,North,0,0.0,0.0,27,0.00,CLR,FEW,0.00,WeatherDisplay:10.37,2013-10-01 22:44:00,
2013-10-01 18:49:00,73.4,37.4,30.03,North,0,0.0,0.0,27,0.00,CLR,FEW,0.00,WeatherDisplay:10.37,2013-10-01 22:49:00,
2013-10-01 18:54:00,73.2,38.1,30.03,North,0,0.0,0.0,28,0.00,CLR,FEW,0.00,WeatherDisplay:10.37,2013-10-01 22:54:00,
2013-10-01 18:59:00,73.0,38.9,30.03,North,0,0.0,0.0,29,0.00,CLR,FEW,0.00,WeatherDisplay:10.37,2013-10-01 22:59:00,
2013-10-01 19:05:00,72.9,38.7,30.03,North,0,0.0,0.0,29,0.00,CLR,FEW,0.00,WeatherDisplay:10.37,2013-10-01 23:05:00,
2013-10-01 19:10:00,72.9,38.7,30.03,North,0,0.0,0.0,29,0.00,CLR,FEW,0.00,WeatherDisplay:10.37,2013-10-01 23:10:00,
2013-10-01 19:15:00,72.7,39.4,30.03,North,0,0.0,0.0,30,0.00,CLR,FEW,0.00,WeatherDisplay:10.37,2013-10-01 23:15:00,
2013-10-01 19:20:00,72.7,40.3,30.03,North,0,0.0,0.0,31,0.00,CLR,FEW,0.00,WeatherDisplay:10.37,2013-10-01 23:20:00,
2013-10-01 19:21:00,72.7,40.3,30.03,North,0,0.0,0.0,31,0.00,CLR,FEW,0.00,WeatherDisplay:10.37,2013-10-01 23:21:00,
2013-10-01 19:26:00,72.5,40.1,30.03,North,0,0.0,0.0,31,0.00,CLR,FEW,0.00,WeatherDisplay:10.37,2013-10-01 23:26:00,
2013-10-01 19:30:00,72.5,40.1,30.06,North,0,0.0,0.0,31,0.00,CLR,FEW,0.00,WeatherDisplay:10.37,2013-10-01 23:30:00,
2013-10-01 19:36:00,72.7,40.3,30.06,North,0,0.0,0.0,31,0.00,CLR,FEW,0.00,WeatherDisplay:10.37,2013-10-01 23:36:00,
2013-10-01 19:41:00,72.7,40.3,30.06,North,0,0.0,0.0,31,0.00,CLR,FEW,0.00,WeatherDisplay:10.37,2013-10-01 23:41:00,
2013-10-01 19:46:00,72.5,40.1,30.06,North,0,0.0,0.0,31,0.00,CLR,FEW,0.00,WeatherDisplay:10.37,2013-10-01 23:46:00,
2013-10-01 19:51:00,72.5,40.1,30.06,North,0,0.0,0.0,31,0.00,CLR,FEW,0.00,WeatherDisplay:10.37,2013-10-01 23:51:00,
2013-10-01 19:56:00,72.3,40.0,30.06,North,0,0.0,0.0,31,0.00,CLR,FEW,0.00,WeatherDisplay:10.37,2013-10-01 23:56:00,
2013-10-01 20:01:00,72.3,40.0,30.06,North,0,0.0,0.0,31,0.00,CLR,FEW,0.00,WeatherDisplay:10.37,2013-10-02 00:01:00,
2013-10-01 20:07:00,72.1,39.8,30.06,North,0,0.0,0.0,31,0.00,CLR,FEW,0.00,WeatherDisplay:10.37,2013-10-02 00:07:00,
2013-10-01 20:12:00,72.1,39.8,30.06,North,0,0.0,0.0,31,0.00,CLR,FEW,0.00,WeatherDisplay:10.37,2013-10-02 00:12:00,
2013-10-01 20:17:00,72.0,40.5,30.06,North,0,0.0,0.0,32,0.00,CLR,FEW,0.00,WeatherDisplay:10.37,2013-10-02 00:17:00,
2013-10-01 20:22:00,72.0,40.5,30.06,North,0,0.0,0.0,32,0.00,CLR,FEW,0.00,WeatherDisplay:10.37,2013-10-02 00:22:00,
2013-10-01 20:27:00,72.1,40.6,30.06,North,0,0.0,0.0,32,0.00,CLR,FEW,0.00,WeatherDisplay:10.37,2013-10-02 00:27:00,
2013-10-01 20:32:00,72.0,40.5,30.06,North,0,0.0,0.0,32,0.00,CLR,FEW,0.00,WeatherDisplay:10.37,2013-10-02 00:32:00,
2013-10-01 20:37:00,71.8,40.3,30.06,North,0,0.0,0.0,32,0.00,CLR,FEW,0.00,WeatherDisplay:10.37,2013-10-02 00:37:00,
2013-10-01 20:43:00,71.6,40.2,30.06,North,0,0.0,0.0,32,0.00,CLR,FEW,0.00,WeatherDisplay:10.37,2013-10-02 00:43:00,
2013-10-01 20:48:00,71.4,40.0,30.06,North,0,0.0,0.0,32,0.00,CLR,FEW,0.00,WeatherDisplay:10.37,2013-10-02 00:48:00,
2013-10-01 20:53:00,71.6,40.2,30.06,North,0,0.0,0.0,32,0.00,CLR,FEW,0.00,WeatherDisplay:10.37,2013-10-02 00:53:00,
2013-10-01 20:58:00,71.4,40.8,30.06,North,0,0.0,0.0,33,0.00,CLR,FEW,0.00,WeatherDisplay:10.37,2013-10-02 00:58:00,
2013-10-01 21:03:00,71.6,40.2,30.06,North,0,0.0,0.0,32,0.00,CLR,FEW,0.00,WeatherDisplay:10.37,2013-10-02 01:03:00,
2013-10-01 21:08:00,71.6,40.2,30.06,North,0,0.0,0.0,32,0.00,CLR,FEW,0.00,WeatherDisplay:10.37,2013-10-02 01:08:00,
2013-10-01 21:13:00,71.4,40.8,30.06,North,0,0.0,0.0,33,0.00,CLR,FEW,0.00,WeatherDisplay:10.37,2013-10-02 01:13:00,
2013-10-01 21:18:00,71.4,40.8,30.06,North,0,0.0,0.0,33,0.00,CLR,FEW,0.00,WeatherDisplay:10.37,2013-10-02 01:18:00,
2013-10-01 21:23:00,70.9,40.3,30.06,North,0,0.0,0.0,33,0.00,CLR,FEW,0.00,WeatherDisplay:10.37,2013-10-02 01:23:00,
2013-10-01 21:28:00,70.3,41.4,30.06,North,0,0.0,0.0,35,0.00,CLR,FEW,0.00,WeatherDisplay:10.37,2013-10-02 01:28:00,
2013-10-01 21:33:00,69.6,41.5,30.06,North,0,0.0,0.0,36,0.00,CLR,FEW,0.00,WeatherDisplay:10.37,2013-10-02 01:33:00,
2013-10-01 21:38:00,69.3,42.6,30.06,North,0,0.0,0.0,38,0.00,CLR,FEW,0.00,WeatherDisplay:10.37,2013-10-02 01:38:00,
2013-10-01 21:43:00,68.7,42.8,30.09,North,0,0.0,0.0,39,0.00,CLR,FEW,0.00,WeatherDisplay:10.37,2013-10-02 01:43:00,
2013-10-01 21:48:00,68.4,44.4,30.09,North,0,0.0,0.0,42,0.00,CLR,FEW,0.00,WeatherDisplay:10.37,2013-10-02 01:48:00,
2013-10-01 21:53:00,67.8,45.1,30.09,North,0,0.0,0.0,44,0.00,CLR,FEW,0.00,WeatherDisplay:10.37,2013-10-02 01:53:00,
2013-10-01 21:58:00,67.5,45.4,30.09,North,0,0.0,0.0,45,0.00,CLR,FEW,0.00,WeatherDisplay:10.37,2013-10-02 01:58:00,
2013-10-01 22:03:00,67.3,45.8,30.09,North,0,0.0,0.0,46,0.00,CLR,FEW,0.00,WeatherDisplay:10.37,2013-10-02 02:03:00,
2013-10-01 22:08:00,66.9,46.0,30.09,North,0,0.0,0.0,47,0.00,CLR,FEW,0.00,WeatherDisplay:10.37,2013-10-02 02:08:00,
2013-10-01 22:13:00,66.7,45.9,30.09,North,0,0.0,0.0,47,0.00,CLR,FEW,0.00,WeatherDisplay:10.37,2013-10-02 02:13:00,
2013-10-01 22:18:00,66.6,46.8,30.09,North,0,0.0,0.0,49,0.00,CLR,FEW,0.00,WeatherDisplay:10.37,2013-10-02 02:18:00,
2013-10-01 22:23:00,66.4,46.6,30.09,North,0,0.0,0.0,49,0.00,CLR,FEW,0.00,WeatherDisplay:10.37,2013-10-02 02:23:00,
2013-10-01 22:28:00,66.0,46.8,30.09,North,0,0.0,0.0,50,0.00,CLR,FEW,0.00,WeatherDisplay:10.37,2013-10-02 02:28:00,
2013-10-01 22:33:00,66.0,48.9,30.09,North,0,0.0,0.0,54,0.00,CLR,FEW,0.00,WeatherDisplay:10.37,2013-10-02 02:33:00,
2013-10-01 22:38:00,65.8,49.2,30.09,North,0,0.0,0.0,55,0.00,CLR,FEW,0.00,WeatherDisplay:10.37,2013-10-02 02:38:00,
2013-10-01 22:43:00,65.7,49.0,30.09,North,0,0.0,0.0,55,0.00,CLR,FEW,0.00,WeatherDisplay:10.37,2013-10-02 02:43:00,
2013-10-01 22:48:00,65.5,49.4,30.09,North,0,0.0,0.0,56,0.00,CLR,FEW,0.00,WeatherDisplay:10.37,2013-10-02 02:48:00,
2013-10-01 22:53:00,65.3,49.7,30.09,North,0,0.0,0.0,57,0.00,CLR,FEW,0.00,WeatherDisplay:10.37,2013-10-02 02:53:00,
2013-10-01 22:58:00,65.1,50.0,30.09,North,0,0.0,0.0,58,0.00,CLR,FEW,0.00,WeatherDisplay:10.37,2013-10-02 02:58:00,
2013-10-01 23:04:00,64.9,50.3,30.09,North,0,0.0,0.0,59,0.00,CLR,FEW,0.00,WeatherDisplay:10.37,2013-10-02 03:04:00,
2013-10-01 23:09:00,64.9,51.2,30.09,North,0,0.0,0.0,61,0.00,CLR,FEW,0.00,WeatherDisplay:10.37,2013-10-02 03:09:00,
2013-10-01 23:15:00,64.6,51.3,30.09,North,0,0.0,0.0,62,0.00,CLR,FEW,0.00,WeatherDisplay:10.37,2013-10-02 03:15:00,
2013-10-01 23:20:00,64.6,51.3,30.09,North,0,0.0,0.0,62,0.00,CLR,FEW,0.00,WeatherDisplay:10.37,2013-10-02 03:20:00,
2013-10-01 23:25:00,64.4,51.1,30.09,North,0,0.0,0.0,62,0.00,CLR,FEW,0.00,WeatherDisplay:10.37,2013-10-02 03:25:00,
2013-10-01 23:30:00,64.4,51.5,30.09,North,0,0.0,0.0,63,0.00,CLR,FEW,0.00,WeatherDisplay:10.37,2013-10-02 03:30:00,
2013-10-01 23:35:00,64.2,51.8,30.09,North,0,0.0,0.0,64,0.00,CLR,FEW,0.00,WeatherDisplay:10.37,2013-10-02 03:35:00,
2013-10-01 23:40:00,64.2,51.8,30.09,North,0,0.0,0.0,64,0.00,CLR,FEW,0.00,WeatherDisplay:10.37,2013-10-02 03:40:00,
2013-10-01 23:45:00,64.0,52.0,30.09,North,0,0.0,0.0,65,0.00,CLR,FEW,0.00,WeatherDisplay:10.37,2013-10-02 03:45:00,
2013-10-01 23:50:00,64.0,52.0,30.09,North,0,0.0,0.0,65,0.00,CLR,FEW,0.00,WeatherDisplay:10.37,2013-10-02 03:50:00,
2013-10-01 23:55:00,63.9,52.3,30.09,North,0,0.0,0.0,66,0.00,CLR,FEW,0.00,WeatherDisplay:10.37,2013-10-02 03:55:00,